Location: Acheville
(50.3840°N, 2.8827°E)
Time: 19:17:13
(UTC+00:00)

Cosmos 2173 Rocket - Pass Details

Date: 24 October 2021
Orbit: 945 x 1000 km, 83.0° (Epoch: 07 December)

Event Time Altitude Azimuth Distance (km) Brightness Sun altitude
Rises 18:31:48 0° 162° (SSE) 3,639 6.8 -18.6°
Reaches altitude 10° 18:34:24 10° 155° (SSE) 2,705 6.0 -19.1°
Maximum altitude 18:40:07 41° 88° (E) 1,398 4.3 -20.0°
Drops below altitude 10° 18:45:56 10° 21° (NNE) 2,757 6.2 -20.9°
Sets 18:48:37 0° 15° (NNE) 3,718 7.0 -21.3°
